• In Italy
  • List of Countries
  • For 7 days
  • Water Temperature
  • Satellite Maps
  • Weather Map
  • Weather Widgets
  • user-avatar
    Login

    Hourly Weather Medan

    Today, 19 November, Sunday

    Time Temperature Precipitation Wind Pressure Humidity
    00:00 +27°C° 0.5 mm 1 mps 755 mmHg 92%
    01:00 +27°C° 0 mm 1 mps 755 mmHg 93%
    02:00 +26°C° 0.2 mm 1 mps 755 mmHg 92%
    03:00 +26°C° 0.2 mm 1 mps 754 mmHg 91%
    04:00 +26°C° 0.2 mm 1 mps 754 mmHg 91%
    05:00 +26°C° 0 mm 1 mps 754 mmHg 89%
    06:00 +27°C° 0 mm 1 mps 755 mmHg 88%
    07:00 +27°C° 0 mm 1 mps 755 mmHg 85%
    08:00 +29°C° 0.1 mm 1 mps 755 mmHg 77%
    09:00 +31°C° 0.1 mm 1 mps 755 mmHg 68%
    10:00 +33°C° 0.1 mm 1 mps 755 mmHg 59%
    11:00 +35°C° 0.2 mm 2 mps 755 mmHg 58%
    12:00 +35°C° 0.2 mm 2 mps 755 mmHg 56%
    13:00 +35°C° 0 mm 2 mps 755 mmHg 56%
    14:00 +35°C° 0.1 mm 2 mps 754 mmHg 59%
    15:00 +34°C° 0.1 mm 2 mps 754 mmHg 61%
    16:00 +34°C° 0.1 mm 2 mps 753 mmHg 63%
    17:00 +31°C° 0.1 mm 2 mps 754 mmHg 70%
    18:00 +30°C° 0.1 mm 1 mps 754 mmHg 76%
    19:00 +29°C° 0.1 mm 1 mps 754 mmHg 83%
    20:00 +28°C° 0.2 mm 1 mps 755 mmHg 84%
    21:00 +28°C° 0.2 mm 1 mps 755 mmHg 85%
    22:00 +28°C° 0.2 mm 1 mps 756 mmHg 86%
    23:00 +28°C° 0.3 mm 1 mps 756 mmHg 86%

    Tomorrow, 20 November, Monday

    Time Temperature Precipitation Wind Pressure Humidity
    00:00 +27°C° 0.3 mm 1 mps 756 mmHg 86%
    01:00 +27°C° 0.3 mm 2 mps 756 mmHg 86%
    02:00 +27°C° 0 mm 1 mps 755 mmHg 86%
    03:00 +27°C° 0 mm 1 mps 755 mmHg 86%
    04:00 +26°C° 0 mm 1 mps 754 mmHg 85%
    05:00 +27°C° 0.1 mm 1 mps 754 mmHg 84%
    06:00 +27°C° 0.1 mm 1 mps 755 mmHg 83%
    07:00 +27°C° 0.1 mm 1 mps 755 mmHg 82%
    08:00 +29°C° 0.1 mm 1 mps 755 mmHg 76%
    09:00 +30°C° 0.1 mm 1 mps 756 mmHg 70%
    10:00 +32°C° 0.1 mm 1 mps 756 mmHg 64%
    11:00 +32°C° 0.1 mm 1 mps 756 mmHg 61%
    12:00 +34°C° 0.1 mm 2 mps 755 mmHg 59%
    13:00 +35°C° 0.1 mm 2 mps 755 mmHg 56%
    14:00 +34°C° 0.3 mm 2 mps 754 mmHg 59%
    15:00 +34°C° 0.3 mm 2 mps 754 mmHg 63%
    16:00 +32°C° 0.3 mm 2 mps 753 mmHg 66%
    17:00 +31°C° 0.6 mm 2 mps 753 mmHg 73%
    18:00 +29°C° 0.6 mm 2 mps 754 mmHg 81%
    19:00 +28°C° 0.6 mm 1 mps 754 mmHg 89%
    20:00 +28°C° 0.7 mm 1 mps 755 mmHg 89%
    21:00 +28°C° 0.7 mm 1 mps 755 mmHg 90%
    22:00 +27°C° 0.7 mm 1 mps 756 mmHg 90%
    23:00 +27°C° 0.1 mm 1 mps 756 mmHg 90%

    Day after tomorrow, 21 November, Tuesday

    Time Temperature Precipitation Wind Pressure Humidity
    00:00 +27°C° 0.1 mm 1 mps 755 mmHg 90%
    01:00 +27°C° 0.1 mm 1 mps 755 mmHg 90%
    02:00 +27°C° 0 mm 1 mps 755 mmHg 89%
    03:00 +27°C° 0 mm 1 mps 754 mmHg 89%
    04:00 +26°C° 0 mm 1 mps 754 mmHg 89%
    05:00 +27°C° 0.1 mm 1 mps 754 mmHg 88%
    06:00 +27°C° 0.1 mm 1 mps 754 mmHg 87%
    07:00 +27°C° 0.1 mm 1 mps 755 mmHg 86%
    08:00 +29°C° 0 mm 1 mps 755 mmHg 77%
    09:00 +31°C° 0 mm 1 mps 756 mmHg 68%
    10:00 +33°C° 0 mm 1 mps 756 mmHg 60%
    11:00 +34°C° 0.2 mm 1 mps 755 mmHg 59%
    12:00 +34°C° 0.2 mm 1 mps 755 mmHg 58%
    13:00 +36°C° 0.2 mm 2 mps 754 mmHg 57%
    14:00 +35°C° 0.5 mm 2 mps 753 mmHg 61%
    15:00 +34°C° 0.5 mm 2 mps 752 mmHg 65%
    16:00 +32°C° 0.5 mm 2 mps 752 mmHg 70%
    17:00 +31°C° 0.9 mm 2 mps 752 mmHg 76%
    18:00 +29°C° 0.9 mm 1 mps 753 mmHg 83%
    19:00 +28°C° 0.9 mm 1 mps 754 mmHg 90%
    20:00 +28°C° 0.9 mm 1 mps 754 mmHg 90%
    21:00 +27°C° 0.9 mm 1 mps 755 mmHg 91%
    22:00 +27°C° 0.9 mm 1 mps 756 mmHg 91%
    23:00 +27°C° 0.3 mm 1 mps 755 mmHg 91%

    22 November, Wednesday

    Time Temperature Precipitation Wind Pressure Humidity
    00:00 +27°C° 0.3 mm 1 mps 755 mmHg 91%
    01:00 +27°C° 0.3 mm 1 mps 754 mmHg 91%
    02:00 +27°C° 0.3 mm 1 mps 754 mmHg 91%
    03:00 +26°C° 0.3 mm 1 mps 754 mmHg 91%
    04:00 +26°C° 0.3 mm 1 mps 753 mmHg 91%
    05:00 +26°C° 0.2 mm 1 mps 753 mmHg 90%
    06:00 +27°C° 0.2 mm 1 mps 754 mmHg 89%
    07:00 +27°C° 0.2 mm 1 mps 754 mmHg 88%
    08:00 +29°C° 0.3 mm 1 mps 755 mmHg 78%
    09:00 +31°C° 0.3 mm 1 mps 755 mmHg 69%
    10:00 +34°C° 0.3 mm 1 mps 755 mmHg 60%
    11:00 +34°C° 0.2 mm 1 mps 755 mmHg 58%
    12:00 +35°C° 0.2 mm 1 mps 754 mmHg 57%
    13:00 +36°C° 0.2 mm 2 mps 753 mmHg 55%
    14:00 +35°C° 0.7 mm 2 mps 753 mmHg 61%
    15:00 +34°C° 0.7 mm 2 mps 752 mmHg 67%
    16:00 +32°C° 0.7 mm 2 mps 751 mmHg 73%
    17:00 +31°C° 1 mm 2 mps 752 mmHg 78%
    18:00 +29°C° 1 mm 1 mps 753 mmHg 83%
    19:00 +28°C° 1 mm 1 mps 753 mmHg 89%
    20:00 +28°C° 0.6 mm 1 mps 754 mmHg 89%
    21:00 +28°C° 0.6 mm 1 mps 754 mmHg 90%
    22:00 +27°C° 0.6 mm 1 mps 755 mmHg 91%
    23:00 +27°C° 0.5 mm 1 mps 755 mmHg 91%

    23 November, Thursday

    Time Temperature Precipitation Wind Pressure Humidity
    00:00 +27°C° 0.5 mm 1 mps 754 mmHg 91%
    01:00 +27°C° 0.5 mm 1 mps 754 mmHg 92%
    02:00 +27°C° 0.6 mm 1 mps 753 mmHg 91%
    03:00 +26°C° 0.6 mm 1 mps 753 mmHg 91%
    04:00 +26°C° 0.6 mm 1 mps 753 mmHg 91%
    05:00 +26°C° 0.3 mm 1 mps 753 mmHg 89%
    06:00 +27°C° 0.3 mm 1 mps 754 mmHg 88%
    07:00 +27°C° 0.3 mm 1 mps 754 mmHg 87%
    08:00 +29°C° 0 mm 2 mps 754 mmHg 79%
    09:00 +30°C° 0 mm 2 mps 755 mmHg 71%
    10:00 +32°C° 0 mm 2 mps 755 mmHg 64%
    11:00 +34°C° 0.1 mm 2 mps 754 mmHg 61%
    12:00 +35°C° 0.1 mm 2 mps 754 mmHg 58%
    13:00 +36°C° 0.1 mm 3 mps 753 mmHg 55%
    14:00 +35°C° 0.4 mm 3 mps 752 mmHg 59%
    15:00 +34°C° 0.4 mm 3 mps 752 mmHg 63%
    16:00 +34°C° 0.4 mm 3 mps 751 mmHg 66%
    17:00 +31°C° 0.3 mm 3 mps 752 mmHg 73%
    18:00 +30°C° 0.3 mm 2 mps 753 mmHg 79%
    19:00 +29°C° 0.3 mm 2 mps 753 mmHg 85%
    20:00 +28°C° 1.3 mm 2 mps 754 mmHg 87%
    21:00 +28°C° 1.3 mm 2 mps 754 mmHg 89%
    22:00 +27°C° 1.3 mm 2 mps 755 mmHg 91%
    23:00 +27°C° 0.9 mm 2 mps 754 mmHg 91%

    24 November, Friday

    Time Temperature Precipitation Wind Pressure Humidity
    00:00 +27°C° 0.9 mm 2 mps 754 mmHg 91%
    01:00 +27°C° 0.9 mm 2 mps 753 mmHg 91%
    02:00 +27°C° 0.3 mm 2 mps 753 mmHg 90%
    03:00 +27°C° 0.3 mm 2 mps 753 mmHg 89%
    04:00 +26°C° 0.3 mm 2 mps 752 mmHg 89%
    05:00 +27°C° 0.1 mm 2 mps 753 mmHg 87%
    06:00 +27°C° 0.1 mm 2 mps 754 mmHg 85%
    07:00 +27°C° 0.1 mm 2 mps 754 mmHg 84%
    08:00 +28°C° 0.3 mm 2 mps 754 mmHg 77%
    09:00 +30°C° 0.3 mm 2 mps 755 mmHg 71%
    10:00 +31°C° 0.3 mm 2 mps 755 mmHg 65%
    11:00 +33°C° 0.4 mm 3 mps 754 mmHg 61%
    12:00 +34°C° 0.4 mm 3 mps 753 mmHg 58%
    13:00 +35°C° 0.4 mm 3 mps 753 mmHg 55%
    14:00 +35°C° 0.3 mm 3 mps 752 mmHg 57%
    15:00 +34°C° 0.3 mm 3 mps 752 mmHg 60%
    16:00 +34°C° 0.3 mm 3 mps 751 mmHg 63%
    17:00 +33°C° 0.3 mm 3 mps 752 mmHg 69%
    18:00 +30°C° 0.3 mm 2 mps 753 mmHg 76%
    19:00 +28°C° 0.3 mm 2 mps 753 mmHg 83%
    20:00 +28°C° 0.5 mm 2 mps 754 mmHg 85%
    21:00 +28°C° 0.5 mm 2 mps 754 mmHg 86%
    22:00 +27°C° 0.5 mm 1 mps 754 mmHg 88%
    23:00 +27°C° 0.6 mm 2 mps 754 mmHg 87%
    Show more